This is the latest recevied weather packets stored in our database for station/object M0TUM-1. If no packets are shown the sender has not sent any weather packets the latest 10 day(s).
| Time | Temp. | Humidity | Pressure | Rain* | Wind** | Luminosity | Snow |
|---|---|---|---|---|---|---|---|
| 1778177019 | 11.11° C | 72% | 1016.4 hPa | 0 mm | - | 24 W/m² | - |
| 1778176714 | 11.11° C | 72% | 1016.5 hPa | 0 mm | - | 24 W/m² | - |
| 1778176412 | 11.11° C | 72% | 1016.8 hPa | 0 mm | - | 26 W/m² | - |
| 1778176109 | 11.11° C | 72% | 1016.6 hPa | 0 mm | - | 27 W/m² | - |
| 1778175806 | 11.11° C | 71% | 1016.4 hPa | 0 mm | - | 29 W/m² | - |
| 1778175503 | 11.11° C | 71% | 1016.6 hPa | 0 mm | - | 31 W/m² | - |
| 1778175201 | 11.11° C | 71% | 1016.5 hPa | 0 mm | - | 32 W/m² | - |
| 1778174897 | 11.11° C | 71% | 1016.6 hPa | 0 mm | - | 34 W/m² | - |
| 1778174594 | 11.67° C | 70% | 1016.7 hPa | 0 mm | - | 37 W/m² | - |
| 1778174289 | 11.67° C | 70% | 1016.8 hPa | 0 mm | - | 41 W/m² | - |
| 1778173987 | 11.67° C | 70% | 1016.5 hPa | 0 mm | - | 42 W/m² | - |
| 1778173683 | 11.67° C | 70% | 1016.4 hPa | 0 mm | - | 44 W/m² | - |
| 1778173380 | 11.67° C | 70% | 1016.6 hPa | 0 mm | - | 43 W/m² | - |
| 1778173076 | 11.67° C | 69% | 1016.3 hPa | 0 mm | - | 44 W/m² | - |
| 1778172772 | 11.67° C | 69% | 1016.6 hPa | 0 mm | - | 44 W/m² | - |
| 1778172468 | 11.67° C | 68% | 1016.4 hPa | 0 mm | - | 46 W/m² | - |
| 1778172166 | 11.67° C | 68% | 1016.3 hPa | 0 mm | - | 51 W/m² | - |
| 1778171863 | 11.67° C | 68% | 1016.5 hPa | 0 mm | - | 57 W/m² | - |
| 1778171560 | 12.22° C | 68% | 1016.5 hPa | 0 mm | - | 65 W/m² | - |
| 1778171256 | 12.22° C | 68% | 1016.5 hPa | 0 mm | - | 76 W/m² | - |
| 1778170952 | 12.22° C | 67% | 1016.6 hPa | 0 mm | - | 89 W/m² | - |
| 1778170649 | 12.78° C | 67% | 1016.5 hPa | 0 mm | - | 102 W/m² | - |
| 1778170346 | 12.78° C | 66% | 1016.4 hPa | 0 mm | - | 116 W/m² | - |
| 1778170041 | 12.78° C | 66% | 1016.3 hPa | 0 mm | - | 131 W/m² | - |
| 1778169738 | 12.78° C | 66% | 1016.4 hPa | 0 mm | - | 139 W/m² | - |
* Rain latest hour (hover to see other rain measurements)
** Current wind speed in m/s (hover to see current wind gust speed)